Regional Weather Roundup
Issued by NWS

Home | Current Version | Previous Version | Graphics & Text | Print | Product List | Glossary On
Versions: 1 2 3 4 5 6 7 8 9 10 11 12 13 14 15 16 17 18 19 20 21 22 23 24 25 26 27 28 29 30 31 32 33 34 35 36 37 38 39 40 41 42 43 44 45 46 47 48 49 50
000
ASUS45 KBOU 250607
RWRCO

WEATHER ROUNDUP FOR COLORADO
NATIONAL WEATHER SERVICE DENVER/BOULDER CO
1100 PM MST MON NOV 24 2014

NOTE: "FAIR" INDICATES FEW OR NO CLOUDS BELOW 12000 FEET WITH NO
SIGNIFICANT WEATHER AND/OR OBSTRUCTIONS TO VISIBILITY.

COZ001>005-013-030-031-250700-
...NORTHWEST COLORADO...

CITY           SKY/WX    TMP DP  RH WIND       PRES   REMARKS
CRAIG          PTCLDY     5   2  87 CALM      30.36R
HAYDEN         CLOUDY    12   7  79 NE6       30.33R WCI   3
MEEKER         PTCLDY     7   3  84 NE5       30.36R WCI  -2
MOUNT WERNER   NOT AVBL
STEAMBOAT SPGS CLOUDY    12   9  90 CALM      30.32R
WALDEN         CLEAR     12   5  73 S8        30.19R WCI   1
$$

COZ006>008-011-250700-
...WEST CENTRAL VALLEYS...

CITY           SKY/WX    TMP DP  RH WIND       PRES   REMARKS
GRAND JUNCTION CLEAR     21  16  81 E6        30.38R WCI  13
MONTROSE       PTCLDY    21  15  78 SE10      30.40R WCI  10
EAGLE          CLEAR     10   9  92 NE3       30.36R
RIFLE          PTCLDY    11   7  84 SE6       30.38R WCI   1
DELTA          PTCLDY    23  17  78 NE5       30.41R WCI  17
NUCLA          PTCLDY    21  12  68 E10       30.42F WCI  10
$$

COZ017>023-064>068-250700-
...SOUTHWEST COLORADO...

CITY           SKY/WX    TMP DP  RH WIND       PRES   REMARKS
DURANGO        CLEAR     21   9  59 CALM      30.33R
CORTEZ         CLEAR     14   9  80 E6        30.40R HAZE    WCI   5
PAGOSA SPRINGS CLEAR     19   4  52 CALM      30.31S
TELLURIDE      NOT AVBL
WOLF CREEK PAS PTCLDY     1  -4  78 MISG      30.19S
$$

COZ009-010-012-014-032>034-037-058>063-250700-
...CENTRAL COLORADO...

CITY           SKY/WX    TMP DP  RH WIND       PRES   REMARKS
ASPEN          CLOUDY    16  12  84 CALM      30.29R
BUENA VISTA    PTCLDY    11   5  75 CALM      30.25R
COPPER MTN     CLOUDY     7   0  72 W23G29    30.12S WCI -14
BERTHOUD PASS  CLOUDY     0  -6  78 NW26G32   30.06R WCI -25
COTTONWOOD PAS PTCLDY    18   0  45 N6G21     30.18S WCI   9
GUNNISON       PTCLDY     1  -9  60 E3        30.34R
KREMMLING      CLOUDY    19  14  79 CALM      30.28R
LEADVILLE      LGT SNOW   8   3  80 E6        30.20R WCI  -2
SALIDA         PTCLDY    15   7  68 CALM      30.34S
SUNLIGHT       CLOUDY   N/A N/A N/A CALM      30.23S
WILKERSON PASS NOT AVBL
$$

COZ069>075-250700-
...SAN LUIS VALLEY/SANGRE DE CRISTO MOUNTAINS...

CITY           SKY/WX    TMP DP  RH WIND       PRES   REMARKS
ALAMOSA        PTCLDY    13   4  67 NE3       30.28R
LA VETA PASS   PTCLDY     9   0  66 MISG      30.18S
SAGUACHE       NOT AVBL
$$

COZ035-036-038>040-250700-
...NORTHERN COLORADO FRONT RANGE...

CITY           SKY/WX    TMP DP  RH WIND       PRES   REMARKS
DENVER INTL AP PTCLDY    24  14  65 S14       30.19F WCI  12
DMNS CITY PARK   N/A     29   8  39 SW5G10    30.19F WCI  24
AURORA         PTCLDY    21  11  65 S7        30.20F WCI  13
FRONT RANGE AP CLEAR     23  18  80 S13       30.20S WCI  11
ERIE MUNI ARPT PTCLDY    22  11  63 S6        30.18F WCI  14
BOULDER MUN AP PTCLDY    28   9  43 S3        30.16F
CENTENNIAL     PTCLDY    25   9  50 SW3       30.19F
BROOMFIELD     PTCLDY    25   9  50 SW6       30.17F WCI  18
FORT COLLINS   CLEAR     23  12  63 SE9       30.18F WCI  13
LONGMONT       CLEAR     20  12  69 CALM      30.19F
$$

COZ041-046-047-076>085-087-088-250700-
...PIKES PEAK/PALMER DIVIDE AND SOUTHERN FOOTHILLS...

CITY           SKY/WX    TMP DP  RH WIND       PRES   REMARKS
COLO. SPRINGS  PTCLDY    18  13  80 N7        30.23S WCI   9
A. F. ACADEMY  PTCLDY    14   6  69 NE7       30.21S WCI   4
ELLICOTT       NOT AVBL
FALCON         NOT AVBL
FORT CARSON    PTCLDY    23   8  54 NW6       30.22S WCI  15
LIMON          CLEAR     17  11  77 W8        30.21F WCI   7
MONUMENT HILL  PTCLDY    16   9  73 SW8       30.18F WCI   5
TRINIDAD       PTCLDY    22  16  78 SW10      30.28F WCI  11
$$

COZ042>045-048>051-090-091-250700-
...NORTHEAST COLORADO...

CITY           SKY/WX    TMP DP  RH WIND       PRES   REMARKS
GREELEY ARPT   CLEAR     18   9  68 SW3       30.20F
AKRON          CLEAR     19  16  88 W12       30.17F WCI   7
BURLINGTON     CLEAR     25  17  72 NW13      30.20S WCI  14
WRAY           CLEAR     22  19  88 W7        30.19S WCI  14
STERLING       CLEAR     30  23  74 NW12      30.17S WCI  21
HOLYOKE        CLEAR     25  19  80 W8        30.17S WCI  16
FORT MORGAN    CLEAR     27  16  63 NW9       30.18F WCI  18
$$

COZ086-089-092>099-250700-
...SOUTHEAST COLORADO...

CITY           SKY/WX    TMP DP  RH WIND       PRES   REMARKS
PUEBLO         CLEAR     24  19  81 W8        30.26F WCI  15
LA JUNTA       PTCLDY    29  21  72 W12       30.26F WCI  19
LAMAR          CLEAR     26  18  71 W6        30.24S WCI  19
SPRINGFIELD      N/A     24  18  77 NW10      30.24F WCI  14
$$



USA.gov is the U.S. government's official web portal to all federal, state and local government web resources and services.